TimeCST,TemperatureF,Dew PointF,Humidity,Sea Level PressureIn,VisibilityMPH,Wind Direction,Wind SpeedMPH,Gust SpeedMPH,PrecipitationIn,Events,Conditions,WindDirDegrees,DateUTC
12:55 AM,58.8,58.5,99,29.92,7.0,SW,3.5,-,N/A,,Overcast,220,2012-12-07 06:55:00
1:13 AM,59.0,59.0,100,29.92,8.0,South,3.5,-,N/A,,Overcast,180,2012-12-07 07:13:00
1:55 AM,58.8,58.1,97,29.92,10.0,South,5.8,-,N/A,,Mostly Cloudy,190,2012-12-07 07:55:00
2:32 AM,59.0,57.2,94,29.91,10.0,SSW,4.6,-,N/A,,Overcast,210,2012-12-07 08:32:00
2:34 AM,59.0,57.2,94,29.91,10.0,SSW,3.5,-,N/A,,Overcast,210,2012-12-07 08:34:00
2:55 AM,58.6,57.6,96,29.92,10.0,SW,4.6,-,N/A,,Mostly Cloudy,220,2012-12-07 08:55:00
2:58 AM,59.0,57.2,94,29.92,10.0,SW,4.6,-,N/A,,Overcast,220,2012-12-07 08:58:00
3:03 AM,59.0,57.2,94,29.92,10.0,Calm,Calm,-,N/A,,Overcast,0,2012-12-07 09:03:00
3:05 AM,59.0,57.2,94,29.91,10.0,Calm,Calm,-,N/A,,Overcast,0,2012-12-07 09:05:00
3:19 AM,57.2,57.2,100,29.92,10.0,WSW,3.5,-,N/A,,Mostly Cloudy,250,2012-12-07 09:19:00
3:28 AM,57.2,57.2,100,29.91,10.0,SW,4.6,-,N/A,,Mostly Cloudy,220,2012-12-07 09:28:00
3:36 AM,57.2,57.2,100,29.91,10.0,WSW,4.6,-,N/A,,Mostly Cloudy,240,2012-12-07 09:36:00
3:47 AM,57.2,57.2,100,29.91,10.0,WSW,6.9,-,N/A,,Overcast,240,2012-12-07 09:47:00
3:55 AM,57.9,56.7,96,29.91,10.0,SW,6.9,-,N/A,,Overcast,230,2012-12-07 09:55:00
4:55 AM,57.7,55.4,92,29.91,10.0,SSW,3.5,-,N/A,,Overcast,210,2012-12-07 10:55:00
5:55 AM,54.9,54.0,97,29.91,10.0,Calm,Calm,-,N/A,,Overcast,0,2012-12-07 11:55:00
6:10 AM,55.4,53.6,94,29.91,10.0,Calm,Calm,-,N/A,,Overcast,0,2012-12-07 12:10:00
6:55 AM,56.5,55.4,96,29.93,10.0,South,3.5,-,N/A,,Overcast,170,2012-12-07 12:55:00
7:01 AM,57.2,55.4,94,29.93,10.0,South,3.5,-,N/A,,Overcast,170,2012-12-07 13:01:00
7:35 AM,57.2,55.4,94,29.93,10.0,Variable,4.6,-,N/A,,Overcast,0,2012-12-07 13:35:00
7:39 AM,57.2,55.4,94,29.93,10.0,SSE,4.6,-,N/A,,Overcast,160,2012-12-07 13:39:00
7:42 AM,57.2,55.4,94,29.92,10.0,South,3.5,-,N/A,,Overcast,170,2012-12-07 13:42:00
7:46 AM,57.2,55.4,94,29.92,10.0,SSE,4.6,-,N/A,,Overcast,160,2012-12-07 13:46:00
7:55 AM,57.0,55.9,96,29.92,10.0,South,3.5,-,N/A,,Overcast,170,2012-12-07 13:55:00
8:39 AM,57.2,55.4,94,29.93,10.0,South,4.6,-,N/A,,Overcast,190,2012-12-07 14:39:00
8:55 AM,57.7,55.8,93,29.93,10.0,SSW,4.6,-,N/A,,Overcast,200,2012-12-07 14:55:00
9:07 AM,57.2,55.4,94,29.94,10.0,SSW,4.6,-,N/A,,Overcast,210,2012-12-07 15:07:00
9:25 AM,57.2,55.4,94,29.94,10.0,South,5.8,-,N/A,,Overcast,190,2012-12-07 15:25:00
9:44 AM,59.0,55.4,88,29.94,10.0,SSW,6.9,-,N/A,,Overcast,200,2012-12-07 15:44:00
9:55 AM,58.3,55.4,90,29.94,10.0,South,6.9,-,N/A,,Overcast,190,2012-12-07 15:55:00
10:08 AM,59.0,55.4,88,29.94,10.0,South,5.8,-,N/A,,Overcast,170,2012-12-07 16:08:00
10:39 AM,59.0,55.4,88,29.93,10.0,Variable,3.5,-,N/A,,Overcast,0,2012-12-07 16:39:00
10:55 AM,59.7,55.2,85,29.93,10.0,Variable,3.5,-,N/A,,Overcast,0,2012-12-07 16:55:00
11:13 AM,60.8,55.4,82,29.92,10.0,SSW,6.9,-,N/A,,Overcast,210,2012-12-07 17:13:00
11:31 AM,60.8,55.4,82,29.91,10.0,South,5.8,-,N/A,,Overcast,190,2012-12-07 17:31:00
11:55 AM,60.8,54.9,81,29.90,10.0,SSE,4.6,-,N/A,,Overcast,160,2012-12-07 17:55:00
12:55 PM,62.2,54.7,76,29.86,10.0,South,5.8,-,N/A,,Mostly Cloudy,190,2012-12-07 18:55:00
1:04 PM,62.6,55.4,77,29.86,10.0,South,5.8,-,N/A,,Overcast,170,2012-12-07 19:04:00
1:07 PM,62.6,55.4,77,29.86,10.0,Variable,5.8,-,N/A,,Overcast,0,2012-12-07 19:07:00
1:55 PM,62.6,54.5,75,29.84,10.0,South,5.8,-,N/A,,Mostly Cloudy,190,2012-12-07 19:55:00
2:55 PM,62.2,54.7,76,29.83,10.0,SSW,3.5,-,N/A,,Overcast,210,2012-12-07 20:55:00
3:37 PM,62.6,53.6,72,29.83,10.0,SSW,6.9,-,N/A,,Overcast,210,2012-12-07 21:37:00
3:55 PM,62.8,54.3,74,29.84,10.0,SW,6.9,-,N/A,,Overcast,220,2012-12-07 21:55:00
4:55 PM,62.1,54.3,76,29.85,10.0,South,3.5,-,N/A,,Overcast,180,2012-12-07 22:55:00
5:15 PM,62.6,55.4,77,29.86,10.0,South,5.8,-,N/A,,Mostly Cloudy,170,2012-12-07 23:15:00
5:30 PM,62.6,55.4,77,29.86,10.0,South,5.8,-,N/A,,Mostly Cloudy,190,2012-12-07 23:30:00
5:42 PM,62.6,55.4,77,29.86,10.0,South,4.6,-,N/A,,Mostly Cloudy,190,2012-12-07 23:42:00
5:55 PM,61.7,54.9,78,29.86,10.0,South,4.6,-,N/A,,Scattered Clouds,180,2012-12-07 23:55:00
6:11 PM,60.8,55.4,82,29.86,10.0,SSW,3.5,-,N/A,,Mostly Cloudy,200,2012-12-08 00:11:00
6:55 PM,61.5,55.6,81,29.87,10.0,SW,3.5,-,N/A,,Mostly Cloudy,230,2012-12-08 00:55:00
7:55 PM,60.1,55.9,86,29.88,10.0,Calm,Calm,-,N/A,,Mostly Cloudy,0,2012-12-08 01:55:00
8:10 PM,59.0,55.4,88,29.88,10.0,Calm,Calm,-,N/A,,Mostly Cloudy,0,2012-12-08 02:10:00
8:55 PM,59.2,55.9,89,29.88,10.0,Calm,Calm,-,N/A,,Mostly Cloudy,0,2012-12-08 02:55:00
9:55 PM,59.0,56.1,90,29.87,10.0,Calm,Calm,-,N/A,,Mostly Cloudy,0,2012-12-08 03:55:00
10:55 PM,58.5,55.8,91,29.87,10.0,Calm,Calm,-,N/A,,Scattered Clouds,0,2012-12-08 04:55:00
11:55 PM,58.6,55.9,91,29.88,10.0,Calm,Calm,-,N/A,,Partly Cloudy,0,2012-12-08 05:55:00